Tracking 29892 objects as of 21-Nov-2024
HD Live streaming from Space Station
objects crossing your sky now

STARLINK-6039

Track STARLINK-6039 now!
10-day predictions
STARLINK-6039 is classified as:


NORAD ID: 56319
Int'l Code: 2023-058C
Perigee: 569.3 km
Apogee: 571.1 km
Inclination: 97.7 °
Period: 95.9 minutes
Semi major axis: 6941 km
RCS: Unknown
Launch date: April 27, 2023
Source: United States (US)
Launch site: AIR FORCE WESTERN TEST RANGE (AFWTR)
Your satellite tracking list
Your tracking list is empty




NASA's NSSDC Master Catalog

Two Line Element Set (TLE):
1 56319U 23058C   24325.83982684 -.00002228  00000-0 -16896-3 0  9995
2 56319  97.6561 324.3609 0001263 184.1732 175.9482 15.01243691 86546
Source of the keplerian elements: AFSPC